When you browse on this site, cookies collect data to enhance your experience and personalize the content and advertising you see.
Visit our Privacy Policy to learn more. By continuing to use the site, you agree to this use of cookies and data.
  • In Czech Republic
  • List of Countries
  • For 7 days
  • Water Temperature
  • Weather Map
  • Weather Widgets
  • user-avatar
    Login

    Hourly Weather Tirana

    Today, 18 February, Tuesday

    Time Temperature Precipitation Wind Pressure Humidity
    00:00 +9°C° 0 mm 1 mps 759 mmHg 73%
    01:00 +9°C° 0 mm 1 mps 758 mmHg 74%
    02:00 +9°C° 0 mm 1 mps 758 mmHg 75%
    03:00 +9°C° 0 mm 1 mps 758 mmHg 75%
    04:00 +9°C° 0 mm 1 mps 758 mmHg 75%
    05:00 +8°C° 0 mm 1 mps 758 mmHg 75%
    06:00 +8°C° 0 mm 1 mps 758 mmHg 74%
    07:00 +8°C° 0 mm 1 mps 758 mmHg 75%
    08:00 +10°C° 0 mm 1 mps 758 mmHg 69%
    09:00 +12°C° 0 mm 1 mps 758 mmHg 64%
    10:00 +14°C° 0 mm 2 mps 758 mmHg 58%
    11:00 +14°C° 0 mm 2 mps 757 mmHg 57%
    12:00 +14°C° 0 mm 3 mps 757 mmHg 57%
    13:00 +16°C° 0 mm 3 mps 756 mmHg 57%
    14:00 +14°C° 0 mm 3 mps 756 mmHg 61%
    15:00 +14°C° 0 mm 4 mps 756 mmHg 66%
    16:00 +13°C° 0 mm 4 mps 756 mmHg 70%
    17:00 +12°C° 0 mm 3 mps 756 mmHg 74%
    18:00 +12°C° 0 mm 2 mps 757 mmHg 79%
    19:00 +10°C° 0 mm 2 mps 757 mmHg 84%
    20:00 +11°C° 0 mm 1 mps 757 mmHg 84%
    21:00 +10°C° 0 mm 1 mps 757 mmHg 85%
    22:00 +10°C° 0 mm 1 mps 757 mmHg 85%
    23:00 +10°C° 0 mm 1 mps 757 mmHg 85%

    Tomorrow, 19 February, Wednesday

    Time Temperature Precipitation Wind Pressure Humidity
    00:00 +10°C° 0 mm 1 mps 757 mmHg 85%
    01:00 +10°C° 0 mm 1 mps 757 mmHg 85%
    02:00 +9°C° 0 mm 1 mps 757 mmHg 85%
    03:00 +9°C° 0 mm 1 mps 756 mmHg 85%
    04:00 +9°C° 0 mm 1 mps 756 mmHg 85%
    05:00 +9°C° 0 mm 1 mps 756 mmHg 84%
    06:00 +9°C° 0 mm 1 mps 756 mmHg 84%
    07:00 +8°C° 0 mm 2 mps 756 mmHg 83%
    08:00 +10°C° 0 mm 2 mps 756 mmHg 78%
    09:00 +12°C° 0 mm 1 mps 756 mmHg 73%
    10:00 +14°C° 0 mm 1 mps 756 mmHg 68%
    11:00 +14°C° 0 mm 1 mps 756 mmHg 66%
    12:00 +15°C° 0 mm 1 mps 755 mmHg 64%
    13:00 +16°C° 0 mm 1 mps 755 mmHg 62%
    14:00 +16°C° 0 mm 1 mps 754 mmHg 66%
    15:00 +15°C° 0 mm 1 mps 754 mmHg 69%
    16:00 +15°C° 0 mm 1 mps 753 mmHg 72%
    17:00 +14°C° 0.1 mm 1 mps 753 mmHg 78%
    18:00 +13°C° 0.1 mm 1 mps 753 mmHg 84%
    19:00 +12°C° 0.1 mm 1 mps 753 mmHg 89%
    20:00 +12°C° 0.3 mm 1 mps 753 mmHg 90%
    21:00 +11°C° 0.3 mm 1 mps 753 mmHg 91%
    22:00 +11°C° 0.3 mm 1 mps 753 mmHg 92%
    23:00 +10°C° 0.6 mm 2 mps 752 mmHg 92%

    Day after tomorrow, 20 February, Thursday

    Time Temperature Precipitation Wind Pressure Humidity
    00:00 +9°C° 0.6 mm 3 mps 752 mmHg 92%
    01:00 +9°C° 0.6 mm 3 mps 752 mmHg 92%
    02:00 +9°C° 1 mm 3 mps 752 mmHg 93%
    03:00 +9°C° 1 mm 3 mps 752 mmHg 94%
    04:00 +9°C° 1 mm 2 mps 752 mmHg 94%
    05:00 +9°C° 0.5 mm 3 mps 752 mmHg 92%
    06:00 +9°C° 0.5 mm 3 mps 752 mmHg 90%
    07:00 +9°C° 0.5 mm 3 mps 752 mmHg 89%
    08:00 +10°C° 0.3 mm 4 mps 752 mmHg 82%
    09:00 +10°C° 0.3 mm 5 mps 753 mmHg 76%
    10:00 +10°C° 0.3 mm 5 mps 753 mmHg 70%
    11:00 +11°C° 0 mm 6 mps 753 mmHg 64%
    12:00 +12°C° 0 mm 7 mps 753 mmHg 59%
    13:00 +13°C° 0 mm 8 mps 753 mmHg 53%
    14:00 +13°C° 0 mm 8 mps 754 mmHg 53%
    15:00 +12°C° 0 mm 8 mps 754 mmHg 53%
    16:00 +12°C° 0 mm 8 mps 754 mmHg 54%
    17:00 +11°C° 0 mm 8 mps 754 mmHg 58%
    18:00 +9°C° 0 mm 8 mps 755 mmHg 62%
    19:00 +7°C° 0 mm 8 mps 755 mmHg 66%
    20:00 +6°C° 0 mm 7 mps 756 mmHg 67%
    21:00 +7°C° 0 mm 6 mps 756 mmHg 68%
    22:00 +5°C° 0 mm 6 mps 756 mmHg 68%
    23:00 +5°C° 0 mm 6 mps 757 mmHg 68%

    21 February, Friday

    Time Temperature Precipitation Wind Pressure Humidity
    00:00 +6°C° 0 mm 5 mps 757 mmHg 69%
    01:00 +5°C° 0 mm 5 mps 757 mmHg 69%
    02:00 +5°C° 0 mm 5 mps 757 mmHg 69%
    03:00 +3°C° 0 mm 5 mps 757 mmHg 69%
    04:00 +3°C° 0 mm 5 mps 757 mmHg 69%
    05:00 +4°C° 0 mm 4 mps 757 mmHg 69%
    06:00 +4°C° 0 mm 4 mps 758 mmHg 69%
    07:00 +4°C° 0 mm 4 mps 758 mmHg 68%
    14:00 +12°C° 0 mm 3 mps 758 mmHg 39%
    15:00 +13°C° 0 mm 4 mps 758 mmHg 40%
    16:00 +12°C° 0 mm 4 mps 758 mmHg 45%
    17:00 +11°C° 0 mm 4 mps 758 mmHg 48%
    18:00 +10°C° 0 mm 4 mps 759 mmHg 51%
    19:00 +7°C° 0 mm 5 mps 759 mmHg 54%
    20:00 +7°C° 0 mm 4 mps 760 mmHg 54%
    21:00 +7°C° 0 mm 4 mps 760 mmHg 53%
    22:00 +6°C° 0 mm 4 mps 761 mmHg 53%
    23:00 +6°C° 0 mm 4 mps 761 mmHg 53%

    22 February, Saturday

    Time Temperature Precipitation Wind Pressure Humidity
    00:00 +6°C° 0 mm 4 mps 761 mmHg 53%
    01:00 +5°C° 0 mm 3 mps 761 mmHg 52%
    02:00 +5°C° 0 mm 4 mps 761 mmHg 53%
    03:00 +5°C° 0 mm 4 mps 761 mmHg 55%
    04:00 +5°C° 0 mm 4 mps 761 mmHg 56%
    05:00 +4°C° 0 mm 4 mps 762 mmHg 57%
    06:00 +4°C° 0 mm 4 mps 762 mmHg 59%
    07:00 +3°C° 0 mm 5 mps 762 mmHg 61%
    08:00 +6°C° 0 mm 5 mps 763 mmHg 55%
    09:00 +8°C° 0 mm 5 mps 763 mmHg 50%
    10:00 +10°C° 0 mm 5 mps 763 mmHg 45%
    11:00 +12°C° 0 mm 5 mps 763 mmHg 40%
    12:00 +13°C° 0 mm 6 mps 763 mmHg 35%
    13:00 +13°C° 0 mm 6 mps 763 mmHg 30%
    14:00 +12°C° 0 mm 7 mps 763 mmHg 32%
    15:00 +11°C° 0 mm 7 mps 763 mmHg 35%
    16:00 +11°C° 0 mm 8 mps 763 mmHg 37%
    17:00 +9°C° 0 mm 7 mps 763 mmHg 40%
    18:00 +8°C° 0 mm 7 mps 764 mmHg 43%
    19:00 +5°C° 0 mm 6 mps 764 mmHg 46%
    20:00 +5°C° 0 mm 6 mps 764 mmHg 47%
    21:00 +5°C° 0 mm 5 mps 765 mmHg 47%
    22:00 +5°C° 0 mm 5 mps 765 mmHg 48%
    23:00 +5°C° 0 mm 4 mps 765 mmHg 49%

    23 February, Sunday

    Time Temperature Precipitation Wind Pressure Humidity
    00:00 +4°C° 0 mm 4 mps 765 mmHg 49%
    01:00 +4°C° 0 mm 3 mps 765 mmHg 50%
    02:00 +4°C° 0 mm 3 mps 765 mmHg 50%
    03:00 +3°C° 0 mm 3 mps 765 mmHg 50%
    04:00 +3°C° 0 mm 3 mps 764 mmHg 50%
    05:00 +4°C° 0 mm 2 mps 764 mmHg 51%
    06:00 +4°C° 0 mm 2 mps 764 mmHg 51%
    07:00 +4°C° 0 mm 2 mps 764 mmHg 51%
    08:00 +7°C° 0 mm 1 mps 764 mmHg 46%
    09:00 +9°C° 0 mm 1 mps 764 mmHg 41%
    10:00 +11°C° 0 mm 1 mps 764 mmHg 36%
    11:00 +12°C° 0 mm 2 mps 764 mmHg 36%
    12:00 +13°C° 0 mm 2 mps 763 mmHg 35%
    13:00 +13°C° 0 mm 3 mps 763 mmHg 35%
    14:00 +12°C° 0 mm 3 mps 763 mmHg 39%
    15:00 +12°C° 0 mm 3 mps 762 mmHg 43%
    16:00 +12°C° 0 mm 3 mps 762 mmHg 48%
    17:00 +10°C° 0 mm 3 mps 762 mmHg 52%
    18:00 +9°C° 0 mm 2 mps 762 mmHg 56%
    19:00 +8°C° 0 mm 2 mps 762 mmHg 60%
    20:00 +8°C° 0 mm 2 mps 762 mmHg 60%
    21:00 +9°C° 0 mm 1 mps 762 mmHg 60%
    22:00 +9°C° 0 mm 1 mps 762 mmHg 60%
    23:00 +8°C° 0 mm 1 mps 762 mmHg 60%
    Show more